sat.trackr.live / text

‹ back to catalog

STARLINK-36904

NORAD 67977 · 2026-038S

PAYLOAD ACTIVE UNKNOWN

§ Identity

Operator
Country
US
Launch date
2026-02-25
Launch site
AFWTR
Launch vehicle
Mass (kg)
RCS (m²)

Purposes: comms

External: N2YO · Heavens-Above · Gunter

§ Orbital elements

Epoch: 2026-05-24T23:35:38.118048Z

Period
93.91 min
Inclination
97.2839°
Eccentricity
0.0001020
Mean motion
15.33449216 rev/d
Perigee alt
464.8 km
Apogee alt
466.2 km
Semi-major
6,843.7 km
B*
6.6224e-4
RAAN
155.0484°
Arg perigee
87.2857°
Mean anomaly
272.8503°
Rev number
1,493

§ Raw data

STARLINK-369041 67977U 26038S   26144.98308007  .00021368  00000+0  66224-3 0  99992 67977  97.2839 155.0484 0001020  87.2857 272.8503 15.33449216 14935

JSON: /api/v1/satellites/67977 · /tle

For live sub-satellite position, see the globe view (requires WebGL).

§ Visibility from observer

Set your observer location to see the next 7 days of passes ≥ 10°. The values pass through the URL so the page stays shareable.

No JS? Fill the form by hand. The geolocation button needs JavaScript.